Terminal Aerodrome Forecast
Issued by NWS La Crosse, WI

Home | Current Version | Previous Version | Text Only | Print | Product List | Glossary On
Versions: 1 2 3 4 5 6 7 8 9 10 11 12 13 14 15 16 17 18 19 20 21 22 23 24 25 26
000
FTUS43 KARX 281120
TAFRST
TAF
KRST 281120Z 2812/2912 18014G21KT P6SM -SHRA OVC080
     FM281500 16012KT 5SM SHRA BKN020
     FM281700 14012KT 4SM SHRA OVC006
     FM290200 10008KT 3SM BR VCSH OVC006
     FM290700 05007KT 1SM BR OVC003=

USA.gov is the U.S. government's official web portal to all federal, state and local government web resources and services.